Flag for India Weather past 2 weeks in Jaipur, Rajasthan, India

Now
99 °F

Haze.


Feels Like: 95 °F
Forecast: 83 / 108 °F
Wind: 5 mph from West

Location: Jaipur / Sanganer

Current Time: May 24, 2015 at 9:50:15 PM

Latest Report: May 24, 2015 at 9:00 PM


Visibility: 2 mi

Pressure: 29.59 "Hg

Humidity: 19%

Dew point: 50 °F

Location of JaipurLocation

Historic Weather in Jaipur — Graph

°F

Jaipur temperature yesterday

Maximum temperature yesterday: 111 °F (at 3:00 PM)
Minimum temperature yesterday: 88 °F (at 4:30 AM)
Average temperature yesterday: 100 °F

Past Weeks' High & Low Weather Summary

 TemperatureHumidityPressure
High111 °F (May 18, 3:00 PM)62% (May 11, 10:00 PM)29.89 "Hg (May 11, 10:00 PM)
Low77 °F (May 15, 5:00 AM)6% (May 18, 5:00 PM)29.53 "Hg (May 23, 3:00 PM)
Average93 °F29%29.71 "Hg
* Reported May 9 10:00 PM — May 24 8:00 PM, Jaipur, Weather by CustomWeather, © 2015

Note: Actual official high and low records may vary slightly from our data, if they occured in-between our weather recording intervals... More about our weather records

Advertising

Jaipur weather history for previous 24 hours

 ConditionsComfort  
Time TempWeatherWind HumidityBarometerVisibility
8:00 PM
Sun, May 24
100 °FHaze.8 mph17%29.59 "Hg2 mi
7:00 PM104 °FPassing clouds.13 mph14%29.56 "Hg2 mi
6:00 PM106 °FLow level haze.16 mph13%29.56 "Hg2 mi
5:00 PM106 °FPassing clouds.15 mph11%29.53 "Hg2 mi
3:00 PM108 °FPassing clouds.18 mph12%29.56 "Hg2 mi
2:00 PM106 °FPassing clouds.15 mph17%29.59 "Hg2 mi
1:00 PM106 °FHaze.15 mph17%29.59 "Hg2 mi
12:00 PM104 °FHaze.13 mph21%29.62 "Hg2 mi
11:00 AM102 °FHaze.16 mph23%29.62 "Hg2 mi
10:00 AM100 °FDuststorm.15 mph24%29.62 "Hg2 mi
9:00 AM97 °FDuststorm.13 mph30%29.62 "Hg2 mi
8:00 AM93 °FDuststorm.15 mph36%29.62 "Hg2 mi
6:00 AM90 °FHaze.6 mph36%29.56 "Hg2 mi
5:00 AM90 °FHaze.6 mph36%29.56 "Hg2 mi
3:00 AM93 °FHaze.8 mph30%29.53 "Hg2 mi
2:00 AM93 °FHaze.7 mph28%29.53 "Hg2 mi
1:00 AM95 °FHaze.7 mph25%29.56 "Hg2 mi
11:00 PM
Sat, May 23
97 °FHaze.5 mph17%29.59 "Hg2 mi
10:00 PM97 °FHaze.5 mph16%29.56 "Hg2 mi
9:00 PM99 °FHaze.5 mph15%29.56 "Hg2 mi
Weather by CustomWeather, © 2015

See weather overviewHow to use our weather pages